Orbital Elements
Epoch 2012 Sept. 30.0 TT = JDT 2456200.5
T 2012 Sept. 20.42527 TT MPC
q 2.1565814 (2000.0) P Q
n 0.01395130 Peri. 72.96870 -0.95547486 +0.29259915
a 17.0893822 Node 124.02953 -0.28519543 -0.88260120
e 0.8738058 Incl. 2.63671 -0.07570567 -0.36796856
P 70.6
From 147 observations 2011 Dec. 29-2013 Feb. 16, mean residual 0".6.
|